Regional Weather Roundup
Issued by NWS

Home | Current Version | Previous Version | Text Only | Print | Product List | Glossary On
Versions: 1 2 3 4 5 6 7 8 9 10 11 12 13 14 15 16 17 18 19 20 21 22 23 24 25 26 27 28 29 30 31 32 33 34 35 36 37 38 39 40 41 42 43 44 45 46 47 48 49 50
000
ASUS44 KOUN 240000
RWROK

WEATHER ROUNDUP FOR OKLAHOMA
NATIONAL WEATHER SERVICE NORMAN OK
600 PM CST THU FEB 23 2017

NOTE: "FAIR" INDICATES FEW OR NO CLOUDS BELOW 12,000 FEET WITH NO
      SIGNIFICANT WEATHER AND/OR OBSTRUCTIONS TO VISIBILITY.

OKZ001>007-009>012-014-015-017-240100-
NORTHWEST OKLAHOMA AND THE PANHANDLE

CITY           SKY/WX    TMP DP  RH WIND       PRES   REMARKS
GAGE           CLEAR     79  -2   4 W24G40    29.36R
6HR MIN TEMP:  75; 6HR MAX TEMP:  85;

GUYMON         CLEAR     66  17  15 N23       29.44R
ENID/WOODRING  PTCLDY    73  50  43 S10       29.31R
$$

OKZ016-021>023-033>039-044-045-240100-
SOUTHWEST OKLAHOMA

CITY           SKY/WX    TMP DP  RH WIND       PRES   REMARKS
LAWTON/REGL    PTCLDY    79  45  29 SW7       29.38R
6HR MIN TEMP:  76; 6HR MAX TEMP:  88;

FREDERICK      CLOUDY    82  32  16 W21       29.37R
CLINTON        CLEAR     78  29  16 SW17      29.38R
HOBART         CLEAR     76  39  26 SW13      29.38R
ALTUS AFB      CLEAR     82  25  12 SW20      29.38R
$$

OKZ018>020-024>031-240100-
CENTRAL OKLAHOMA

CITY           SKY/WX    TMP DP  RH WIND       PRES   REMARKS
OKLAHOMA CITY  PTCLDY    79  41  25 S12       29.37S
6HR MIN TEMP:  76; 6HR MAX TEMP:  87;

OKC/WILEY POST CLEAR     81  42  25 S16G24    29.36S
OKC/TINKER AFB CLEAR     81  41  23 S15       29.37S
STILLWATER     PTCLDY    81  37  20 S10       29.34S
GUTHRIE        PTCLDY    82  40  22 S13       29.34S
$$

OKZ008-013-054>072-240100-
NORTHEAST OKLAHOMA

CITY           SKY/WX    TMP DP  RH WIND       PRES   REMARKS
TULSA          PTCLDY    83  43  24 S24G31    29.34S
6HR MIN TEMP:  75; 6HR MAX TEMP:  86;

TULSA/JONES    CLEAR     83  41  22 S16G26    29.36S
PONCA CITY     MOCLDY    79  43  27 S9        29.31S
BARTLESVILLE   MOCLDY    80  44  27 S13G22    29.34S
MUSKOGEE       PTCLDY    81  42  25 S13G30    29.42R
$$

OKZ032-040>043-046>053-073>077-240100-
SOUTH CENTRAL/SOUTHEAST OKLAHOMA

CITY           SKY/WX    TMP DP  RH WIND       PRES   REMARKS
MCALESTER      CLEAR     82  44  26 S13G30    29.45S
$$





USA.gov is the U.S. government's official web portal to all federal, state and local government web resources and services.